Location: Finnegan
(51.1333°N, 112.0833°W)
Time: 07:56:33
(UTC+00:00)

N. Korean satellite - Pass Details

Date: 05 December 2021
Orbit: 446 x 491 km, 97.3° (Epoch: 18 January)

Event Time Altitude Azimuth Distance (km) Brightness Sun altitude
Rises 00:46:13 0° 204° (SSW) 2,529 10.9 -12.4°
Reaches altitude 10° 00:48:47 10° 224° (SW) 1,646 10.3 -12.7°
Maximum altitude 00:51:15 18° 268° (W) 1,237 9.7 -13.1°
Drops below altitude 10° 00:53:43 10° 313° (NW) 1,636 9.6 -13.5°
Sets 00:56:16 0° 333° (NNW) 2,508 10.3 -13.8°
